GFSSGP_700_spd_000.txt.gz
Wind_Speed
6 6 4 3 4 5 8 7 9 9 6 8 12 15 9 12 10 4 6 4 6 10 7 7 9 8 8 8 8 8 9 9 9 9 10 8 9 9 9 9 9 9 10 10 9 9 9 9 10
6 6 6 3 5 10 9 8 6 7 7 5 9 9 7 14 14 15 13 12 10 11 9 10 10 10 11 10 11 11 12 12 12 12 11 10 12 11 10 10 11 10 11 12 12 12 12 12 12
4 6 5 3 6 13 6 8 4 10 6 7 9 8 13 11 6 14 12 11 10 11 12 12 12 13 14 14 14 13 14 14 14 13 13 12 13 14 13 13 13 13 13 14 14 14 15 15 15
2 4 4 8 7 11 11 8 10 10 9 10 9 9 9 8 10 8 12 13 12 13 13 13 13 14 14 13 12 11 12 13 13 13 14 13 14 14 15 14 14 15 15 17 16 16 17 17 18
1 3 3 10 11 10 16 10 14 12 12 11 11 12 11 9 11 12 12 13 14 13 13 15 16 17 16 14 14 13 13 14 14 13 13 13 14 15 14 14 14 15 16 17 17 18 18 18 18
1 2 4 12 12 11 18 14 11 12 13 13 12 14 14 9 14 14 14 14 14 15 15 16 18 19 18 18 17 16 14 14 14 14 14 15 15 14 13 14 14 14 15 16 16 17 17 17 17
3 5 10 11 13 12 15 13 12 11 12 15 15 16 18 11 14 13 15 15 16 16 17 17 17 19 19 21 21 18 16 15 14 14 15 15 16 16 16 16 16 16 17 16 17 18 18 18 19
5 7 8 7 11 11 17 15 12 12 14 16 16 14 19 11 16 18 19 19 20 19 19 18 19 21 22 22 22 20 18 16 16 15 14 14 15 16 17 16 16 16 16 17 18 19 18 19 19
6 8 7 10 15 11 18 15 14 13 15 16 19 18 20 20 20 21 21 22 23 22 22 21 21 22 23 24 24 22 20 20 19 17 15 15 16 16 16 16 16 18 18 20 20 20 20 21 21
9 12 10 14 16 19 20 19 18 17 14 16 17 18 19 19 19 20 20 21 21 22 24 24 24 24 25 25 26 25 23 23 22 21 19 18 17 18 18 18 19 19 20 21 22 22 22 21 20
15 16 12 16 21 19 20 22 19 22 20 18 19 19 20 19 19 19 19 20 21 22 24 25 26 26 26 27 27 27 25 24 23 23 23 22 21 21 20 20 21 21 22 22 23 22 23 23 23
19 19 21 22 23 19 20 23 25 25 20 21 22 21 26 23 22 22 22 23 24 24 24 26 27 29 28 27 28 28 28 26 25 25 26 25 25 23 23 23 23 23 23 24 24 24 23 24 24
25 21 22 24 27 24 26 24 26 25 19 19 22 24 29 27 26 26 26 26 27 27 25 24 27 28 29 28 29 29 29 30 29 28 28 28 27 26 25 25 25 25 26 25 26 25 25 25 24
26 26 28 27 30 32 30 27 28 21 20 20 23 26 25 29 29 31 29 27 30 31 29 27 28 29 31 31 31 30 31 30 31 30 31 31 31 30 28 27 28 27 27 28 28 27 26 24 23
20 32 34 32 28 31 30 28 31 22 23 27 23 25 29 29 32 32 31 32 32 33 32 29 29 30 31 33 33 32 32 33 32 33 33 34 33 32 31 30 30 30 30 30 29 28 27 24 22
31 32 30 25 22 25 23 38 30 25 28 32 32 33 32 37 34 34 34 34 34 37 34 32 32 32 31 33 33 34 35 36 37 36 36 36 36 35 34 32 31 32 32 32 31 31 28 26 23
26 24 27 26 27 29 33 40 33 33 33 36 38 40 39 37 39 35 36 39 37 37 37 35 34 34 32 33 34 36 37 38 39 38 37 37 37 36 35 33 33 33 32 33 32 31 30 27 27
27 24 30 39 36 30 37 45 42 39 40 41 42 43 44 38 31 37 32 27 32 35 36 34 33 32 31 31 32 33 36 38 38 39 39 38 37 37 36 34 34 33 33 33 33 32 30 30 30
32 37 39 48 41 33 40 45 45 43 45 48 46 40 31 35 35 38 35 29 29 32 32 27 27 26 27 25 27 31 35 37 39 40 40 40 39 38 37 36 34 34 34 33 33 34 30 31 34
40 42 46 47 46 37 33 42 47 46 51 45 38 39 31 32 32 33 32 31 27 24 23 21 22 21 20 21 25 30 34 37 39 40 41 40 39 38 39 36 35 35 34 34 34 32 32 32 34
46 46 51 51 45 39 44 47 48 47 42 40 47 40 29 24 26 28 27 24 24 19 19 21 22 17 15 18 23 28 32 35 38 38 39 39 39 39 38 36 36 35 35 35 33 31 32 33 32
54 44 44 42 36 23 24 27 43 40 42 42 39 11 18 26 26 27 26 25 20 17 21 23 24 17 14 18 25 28 29 34 35 37 38 37 39 40 38 38 39 37 36 34 33 32 33 35 36
44 38 34 33 33 34 33 30 32 32 34 27 9 16 19 22 28 30 28 25 20 19 19 24 29 28 25 21 29 29 28 31 34 35 35 37 40 40 39 40 39 37 34 33 33 34 34 36 37
40 36 31 31 33 16 29 28 36 24 24 21 14 19 22 29 29 29 27 28 24 19 24 24 30 32 32 27 31 33 31 30 32 34 36 38 39 39 39 39 37 36 34 33 35 36 36 37 37
37 26 7 5 4 17 23 29 44 30 28 28 28 27 24 35 23 25 21 24 25 25 27 27 31 34 33 30 38 35 40 32 33 34 36 37 38 37 38 37 36 35 34 35 37 38 38 38 37
28 32 16 7 10 24 27 19 32 39 38 38 42 29 24 27 23 20 20 23 23 23 30 32 34 36 36 36 42 39 39 38 32 33 36 36 36 38 39 37 36 36 36 37 39 40 39 38 35
28 28 35 30 36 12 37 45 51 38 30 30 26 26 26 22 20 19 25 24 18 26 30 31 29 36 41 40 43 42 41 41 36 34 34 36 37 39 39 38 37 37 37 38 40 40 39 36 34
33 30 14 15 2 7 29 35 39 39 35 31 33 25 21 20 21 23 20 17 30 32 33 31 31 35 40 44 45 46 45 44 41 37 36 37 38 39 39 38 37 38 38 38 39 40 36 34 35
40 41 32 23 25 7 10 28 8 9 10 12 20 19 20 23 20 30 34 38 27 32 33 37 37 40 41 45 46 47 46 47 45 40 37 38 39 40 41 40 39 38 37 39 39 36 33 35 35
38 38 39 31 29 21 32 47 34 29 23 10 5 25 30 38 39 34 35 39 42 36 40 42 43 43 44 46 47 48 49 48 45 41 39 40 41 42 42 41 39 37 37 36 35 34 34 35 38

GFSSGP_700_spd_003.txt.gz
Wind_Speed
5 5 3 3 2 4 6 3 7 8 5 8 10 12 9 13 10 4 4 3 3 7 7 7 6 7 8 9 9 9 9 9 9 9 9 10 11 11 11 11 10 10 9 9 7 6 7 7 8
6 6 6 5 3 3 4 4 8 9 6 5 9 10 12 14 13 14 14 10 14 6 11 10 10 9 9 10 10 10 11 12 12 11 11 12 12 11 10 9 9 9 9 10 9 9 10 10 9
5 6 6 5 3 3 4 7 15 14 6 7 9 10 12 9 7 11 13 13 12 9 11 11 12 11 11 12 12 12 13 13 13 13 13 13 12 12 11 11 11 10 11 12 11 12 13 13 13
3 4 5 6 5 4 8 15 19 12 9 9 10 10 10 8 9 10 12 11 12 12 11 12 12 13 12 12 12 12 12 13 13 12 13 14 14 14 13 12 12 12 13 13 13 13 14 14 14
1 2 5 5 6 15 11 17 17 12 12 12 11 13 11 9 10 11 14 13 13 12 12 13 14 14 14 14 14 14 15 15 15 14 15 16 17 17 17 16 16 15 14 13 13 13 14 15 15
2 4 5 8 8 11 12 17 17 13 14 13 12 15 13 10 13 14 15 15 14 13 15 14 15 16 16 17 17 17 17 18 17 16 16 17 18 18 18 18 17 16 16 15 15 16 16 17 17
4 7 7 9 8 6 13 16 14 14 16 12 13 16 16 12 15 16 15 14 15 16 16 16 16 17 19 21 20 20 20 19 18 18 18 18 19 19 20 20 19 19 18 17 17 17 18 18 18
4 6 7 5 8 12 17 15 14 15 14 15 15 13 15 12 14 17 19 19 18 19 19 19 20 20 20 22 23 23 23 21 20 18 17 19 20 22 22 23 23 21 20 19 19 19 19 19 19
7 8 8 8 10 16 18 18 16 16 16 17 17 17 16 15 15 17 17 18 19 20 21 21 23 23 23 24 24 25 25 24 22 21 20 19 18 19 19 21 21 21 20 20 20 20 20 20 20
10 14 10 9 12 17 22 23 21 21 18 19 18 17 17 16 15 15 15 16 17 18 20 21 24 24 25 25 26 27 27 27 25 24 22 21 20 19 18 19 20 20 21 21 20 20 20 21 20
15 16 13 17 18 20 22 22 23 23 22 17 21 20 21 20 18 19 18 18 18 18 20 20 22 24 27 27 28 28 29 28 27 26 25 24 22 20 21 21 21 20 21 21 20 21 21 21 20
21 16 19 21 20 22 22 25 25 28 21 23 22 23 24 21 20 20 22 22 23 22 21 20 22 24 27 28 29 30 29 28 29 28 27 26 26 24 24 23 23 23 23 23 22 22 22 22 23
25 21 22 23 23 26 27 27 28 29 21 22 21 25 27 25 22 21 23 26 26 25 24 24 24 25 27 27 30 30 30 29 29 29 29 30 29 28 27 26 25 26 25 25 25 24 24 24 24
29 28 25 26 27 31 31 25 28 19 17 20 22 22 23 26 25 26 24 25 27 28 29 29 27 28 28 28 29 30 30 30 30 31 31 32 31 31 31 29 28 27 27 26 25 25 26 26 25
25 27 33 28 26 20 21 27 27 25 24 24 24 24 28 28 30 30 30 30 30 32 33 35 31 30 30 29 29 29 31 32 33 34 35 34 34 34 34 34 32 29 28 28 27 27 26 26 24
32 33 37 31 26 21 22 37 35 31 30 29 32 33 33 33 34 34 33 34 37 39 38 38 37 34 32 31 30 29 30 33 34 35 36 36 36 37 37 37 35 32 30 29 29 28 27 27 26
35 36 37 39 32 25 30 39 43 38 36 34 35 37 39 42 41 39 36 34 32 35 36 39 40 37 36 34 32 31 31 32 33 35 36 38 39 39 39 38 37 34 32 31 31 31 29 29 27
41 29 33 39 42 36 35 47 43 40 41 39 40 40 43 46 31 27 31 35 35 33 28 32 36 38 37 36 34 31 29 29 31 32 35 38 40 41 40 39 37 36 34 34 34 32 32 32 29
37 39 40 47 44 44 47 47 50 48 41 42 43 45 45 38 32 31 33 36 34 30 30 29 31 32 34 34 31 25 23 25 28 31 34 37 39 41 40 40 38 37 36 37 36 34 33 34 33
39 43 46 50 46 47 47 51 53 48 49 45 44 47 40 36 32 29 31 31 31 26 26 25 25 27 29 28 23 20 20 21 25 29 32 35 37 38 39 39 39 38 38 38 37 37 35 32 32
46 42 48 52 52 56 55 59 54 49 41 40 46 42 39 21 19 24 27 26 26 24 22 22 21 23 24 21 19 15 14 15 21 25 28 32 35 36 37 38 39 39 40 39 38 38 35 30 30
56 51 53 51 41 35 36 29 41 39 42 43 44 39 14 16 22 24 25 26 24 22 22 22 23 23 23 23 21 16 13 16 23 28 30 32 33 34 35 37 39 40 40 40 39 36 33 32 28
46 40 41 43 38 37 31 25 43 29 32 40 25 18 22 23 21 31 30 29 23 22 18 20 23 23 26 24 27 20 17 19 26 28 27 30 32 34 36 38 39 41 41 39 37 35 34 33 31
39 40 36 35 36 20 26 24 40 32 25 21 23 21 21 23 30 31 34 30 24 22 20 19 21 26 25 26 31 27 22 21 26 30 28 26 31 34 36 38 40 41 40 38 37 36 34 34 33
44 42 9 5 2 14 20 29 50 36 37 35 30 30 32 32 31 31 30 22 25 22 18 19 20 26 26 27 29 31 30 27 26 33 33 26 28 31 34 37 39 40 41 39 38 36 34 33 32
37 37 18 7 9 21 27 20 37 29 35 48 43 32 33 32 31 29 22 20 20 18 17 15 23 24 24 27 28 29 34 33 32 32 37 30 27 28 35 37 38 40 41 41 39 37 35 34 33
28 28 37 28 33 8 33 42 52 42 28 19 27 26 25 26 29 26 22 18 15 15 14 22 25 22 29 32 30 28 33 39 36 35 35 35 31 32 34 37 38 39 41 41 40 38 35 33 33
33 29 14 15 3 7 26 26 35 37 28 16 25 23 22 25 26 26 24 20 11 12 26 35 37 32 36 36 34 36 34 37 38 36 34 36 38 34 35 38 41 41 41 41 40 38 35 34 33
33 39 35 28 26 12 14 28 32 12 16 29 29 25 21 25 23 20 17 20 34 39 38 31 32 36 33 35 38 39 37 38 39 40 39 38 39 37 37 39 41 43 42 42 40 37 36 35 33
30 24 32 26 18 22 25 32 57 50 19 15 2 5 5 16 22 28 32 37 42 38 34 38 36 34 36 41 42 40 40 40 40 41 40 40 40 39 38 40 42 44 44 42 41 39 37 34 32

GFSSGP_700_spd_006.txt.gz
Wind_Speed
7 6 5 4 4 5 6 3 4 8 6 9 10 11 8 12 12 4 3 5 3 6 8 8 9 9 9 8 9 10 10 9 10 11 12 13 14 14 14 13 13 12 11 9 8 8 8 8 7
7 7 7 6 5 5 2 0 3 10 10 8 10 12 12 13 12 13 10 8 8 7 9 10 11 10 9 9 9 10 9 9 10 11 13 14 14 14 13 12 12 12 12 11 9 10 11 10 9
5 6 6 5 5 2 6 5 11 14 9 9 10 10 13 12 9 11 9 8 10 9 7 10 11 11 11 12 11 11 11 10 11 12 14 14 15 15 15 14 13 13 13 12 12 12 12 12 12
3 5 6 8 6 5 11 11 14 16 12 11 11 12 13 8 11 11 12 9 8 10 10 9 10 11 12 13 13 13 13 12 12 13 14 16 16 17 17 17 17 17 15 15 14 14 14 14 14
2 4 7 6 4 7 8 10 15 17 14 14 13 14 14 10 11 12 12 12 10 9 10 11 11 12 13 14 15 16 16 15 15 16 17 19 19 19 19 19 19 19 18 17 15 16 16 17 17
2 4 6 8 8 9 8 11 13 14 14 13 15 15 13 11 14 14 15 14 13 12 12 12 13 14 15 16 17 17 17 17 16 17 17 19 20 21 21 21 22 22 20 19 18 18 19 19 19
5 6 7 9 5 6 8 12 14 15 14 13 13 15 11 8 13 15 16 14 13 14 15 15 15 16 17 17 18 19 19 19 18 18 19 18 19 19 21 22 23 24 23 23 23 23 22 22 22
7 8 7 7 7 9 9 14 14 16 16 15 14 10 11 12 12 14 14 15 16 18 18 18 19 19 19 19 20 21 22 21 20 20 20 19 19 20 21 23 25 26 27 27 26 25 25 24 24
10 10 8 10 9 11 13 17 19 21 20 20 18 17 14 14 14 15 15 14 14 16 18 19 20 22 22 22 22 23 24 23 23 22 22 21 20 20 20 21 24 26 26 27 26 26 25 25 26
13 16 10 11 12 16 17 19 22 24 21 22 21 18 19 19 17 16 16 15 15 16 18 19 20 21 23 24 25 25 26 25 26 26 25 23 22 21 20 20 20 21 23 25 25 26 25 25 26
19 18 13 14 17 19 19 21 24 24 23 18 21 22 23 22 21 20 19 19 18 19 19 19 20 21 23 25 26 27 27 27 28 28 26 25 24 23 23 21 21 21 22 23 24 25 24 24 24
26 22 19 19 19 21 20 22 25 27 23 25 24 24 25 23 21 21 21 21 23 24 22 22 22 22 24 26 26 28 29 29 29 28 28 28 26 25 24 23 23 22 23 23 23 23 24 24 24
29 27 25 25 26 23 23 26 28 25 15 17 21 24 23 21 20 20 21 23 25 25 25 25 25 25 25 26 27 28 29 29 31 30 30 29 29 28 26 26 25 25 25 25 25 24 25 25 25
31 33 30 30 28 25 31 27 25 22 15 19 22 23 22 24 22 23 24 24 25 25 27 28 29 30 29 27 28 28 30 31 32 31 31 31 31 30 30 29 29 28 27 27 26 27 27 26 25
32 32 32 34 33 31 26 35 36 23 25 27 23 24 26 28 27 28 27 28 28 29 31 32 33 34 35 30 29 30 30 31 32 32 32 33 33 33 33 33 33 32 31 29 27 28 28 27 27
36 37 40 38 38 34 32 43 38 32 32 33 30 29 29 31 31 30 31 31 32 35 37 37 38 38 39 37 32 32 32 32 33 33 33 34 34 34 35 35 34 34 33 31 29 29 28 28 27
40 40 45 45 44 39 35 44 42 39 40 37 37 37 36 35 34 32 33 30 31 34 37 36 34 35 39 39 37 36 35 34 33 34 33 34 34 36 37 37 36 36 34 32 31 30 29 29 28
45 43 43 43 44 47 43 51 50 44 45 44 46 44 42 39 35 31 32 31 34 35 35 35 34 33 35 39 40 40 38 35 34 32 32 33 34 35 36 36 36 36 35 34 32 31 30 30 29
45 45 47 45 42 50 54 57 55 51 53 54 49 45 43 41 32 30 30 32 38 37 36 35 33 31 34 34 37 39 37 33 30 29 30 31 32 33 35 36 36 36 35 33 33 32 32 32 31
44 47 49 53 48 50 55 61 58 57 57 54 51 46 40 38 34 35 30 32 34 32 29 30 29 30 31 32 32 34 33 30 29 29 27 25 25 28 32 34 36 36 35 34 33 32 33 34 35
51 47 54 55 50 50 54 66 62 52 47 44 42 39 36 34 27 19 18 26 26 28 26 23 24 25 28 30 32 32 31 32 28 19 14 15 20 25 30 33 34 35 34 35 34 34 35 36 35
58 49 52 48 39 33 34 41 49 56 50 44 38 31 23 28 18 18 19 24 28 24 23 25 23 26 29 30 29 27 27 25 20 15 13 14 20 24 29 31 33 34 34 34 35 35 36 35 34
45 36 41 42 44 41 26 19 36 36 38 28 13 15 27 19 25 31 28 30 31 27 24 25 26 28 27 25 27 27 28 27 20 15 15 16 17 24 29 31 32 33 34 35 36 36 36 35 34
34 32 34 38 35 19 24 25 51 17 15 15 25 31 28 31 33 29 32 33 31 29 26 21 20 23 20 25 24 26 29 25 23 24 22 20 22 23 27 30 30 32 33 36 38 38 37 36 35
37 36 8 5 3 13 19 26 50 38 37 28 30 40 36 34 31 32 35 32 30 24 23 19 20 20 16 18 23 26 26 28 29 26 25 23 24 24 23 25 29 32 35 37 38 38 37 37 36
32 34 21 7 10 23 29 23 40 37 34 40 32 26 31 35 31 28 35 30 30 23 17 18 21 18 13 18 23 27 30 28 28 26 26 23 25 27 24 24 27 32 35 38 39 39 39 38 38
34 28 39 30 36 8 33 45 52 39 14 19 21 18 24 26 23 27 30 31 29 21 15 15 14 15 22 27 25 29 33 31 27 25 27 28 26 28 27 28 27 29 33 37 39 39 39 38 38
36 34 17 14 5 8 22 25 38 37 27 19 24 19 24 18 21 20 23 26 22 18 12 11 19 25 30 29 30 33 36 34 34 33 31 30 29 30 33 32 31 30 33 36 39 40 39 38 38
33 36 37 30 22 12 16 25 44 42 42 31 22 36 37 29 25 21 16 14 13 18 22 26 30 35 27 26 29 35 38 39 38 36 36 36 36 35 34 35 35 33 34 37 39 41 41 39 39
29 32 38 28 20 27 22 24 57 52 63 56 46 28 20 24 20 16 18 25 26 34 41 41 37 40 34 38 44 41 38 37 42 43 42 42 40 40 39 37 38 36 37 39 41 42 42 41 41

GFSSGP_700_spd_009.txt.gz
Wind_Speed
7 6 6 6 6 5 7 5 5 6 9 9 11 11 9 11 11 6 3 4 7 9 10 10 9 9 9 9 8 8 8 8 8 9 10 11 12 13 14 15 14 14 13 10 11 9 9 8 9
7 7 7 8 6 7 4 2 4 8 12 12 11 14 15 15 14 13 11 8 9 8 9 11 11 10 10 10 10 9 9 9 8 9 10 12 13 14 14 14 14 13 13 12 13 12 10 10 10
6 7 7 5 6 5 5 4 6 11 13 11 12 13 15 15 10 12 9 9 8 8 7 10 11 12 11 11 11 10 11 11 10 11 12 13 14 15 15 15 16 15 13 13 13 13 13 12 12
4 5 7 8 9 6 9 7 8 11 13 12 12 15 16 11 12 11 11 9 8 7 8 8 10 12 12 13 12 12 12 12 12 11 12 14 15 16 17 17 17 17 16 16 16 16 16 16 15
3 4 8 9 8 8 9 6 7 11 12 12 13 16 15 13 13 12 11 12 11 10 9 9 10 12 12 13 14 14 14 14 14 14 15 16 18 19 19 19 20 19 19 19 18 18 18 18 17
4 5 7 10 9 10 10 9 9 11 12 13 16 16 13 11 13 13 12 13 14 13 11 10 11 12 13 14 15 16 17 17 17 17 17 17 18 19 20 20 21 22 22 21 21 20 20 21 20
6 8 11 10 7 7 8 8 10 12 13 14 15 17 12 9 11 12 13 13 12 12 12 12 12 13 14 15 15 16 17 18 18 18 16 16 17 18 19 20 22 23 23 23 24 24 24 24 24
9 11 13 10 8 11 10 11 12 14 15 18 17 13 14 15 14 14 14 13 13 14 14 15 15 15 16 17 17 17 18 19 19 19 18 17 17 18 19 20 21 23 25 26 27 27 27 28 27
12 15 14 13 13 11 14 15 16 20 21 19 19 17 16 18 18 17 16 14 14 14 15 16 17 17 18 19 20 20 20 21 21 21 21 20 19 19 20 21 21 23 25 27 29 30 31 30 30
16 20 18 13 15 18 19 21 20 24 22 23 21 19 19 20 21 20 17 16 16 16 16 18 18 19 20 20 22 22 23 22 23 24 23 22 22 22 22 21 20 20 22 23 25 27 29 29 29
23 24 19 18 19 21 23 22 22 25 24 21 25 22 25 24 22 21 19 19 18 20 21 19 20 20 21 21 22 24 25 25 25 26 25 25 25 24 23 21 21 20 21 21 23 24 25 27 27
29 27 23 24 22 24 24 26 23 27 22 20 19 21 23 24 22 20 19 20 22 23 23 24 23 23 23 24 24 25 26 27 28 28 27 27 26 25 24 23 23 22 22 22 22 23 24 25 25
32 31 31 28 32 29 28 26 26 31 18 19 19 21 21 22 22 19 19 21 23 23 23 24 25 26 25 27 27 27 27 27 29 29 29 29 27 27 25 25 25 25 24 22 22 23 24 25 26
35 35 35 35 35 35 34 29 34 31 25 21 22 25 26 25 23 24 23 22 24 23 25 26 27 27 29 30 29 28 28 29 31 31 30 30 29 28 28 27 27 26 26 25 25 24 24 25 26
35 37 37 38 38 40 36 37 41 36 31 28 30 28 28 28 27 29 28 27 25 26 27 29 30 32 32 32 32 33 31 32 32 31 32 31 31 31 31 30 29 29 29 28 28 27 25 25 25
39 40 44 40 42 45 42 46 42 39 35 38 35 36 33 32 32 32 32 32 30 31 31 31 34 36 38 37 36 37 35 34 33 33 33 33 33 32 32 31 31 31 30 30 30 29 27 25 26
40 42 46 45 39 46 45 46 45 44 45 44 43 42 42 41 39 36 33 34 33 34 33 34 36 38 39 40 39 39 39 39 36 36 35 35 34 33 32 33 32 33 32 31 30 30 28 26 25
41 42 43 45 39 49 52 56 51 47 50 50 49 49 48 47 44 39 35 34 35 36 37 39 41 40 37 35 37 39 42 44 41 39 37 36 34 33 32 33 33 33 32 31 30 29 29 27 26
39 41 47 48 44 51 56 60 58 52 51 53 53 51 49 44 36 34 32 31 33 35 38 41 40 40 39 38 39 40 38 40 42 39 37 35 33 32 32 32 33 33 32 32 30 29 28 28 27
37 42 47 53 48 49 55 63 57 55 54 49 47 42 40 37 34 28 30 33 34 35 41 42 39 39 39 38 37 39 35 34 38 39 38 35 33 32 31 30 31 32 32 31 31 29 29 28 28
49 47 52 54 48 47 52 64 45 40 40 42 37 34 27 26 20 18 24 28 27 27 29 30 30 32 34 36 38 37 36 38 39 40 38 34 30 27 27 28 29 30 30 31 30 29 29 29 30
45 35 42 42 41 30 26 33 36 44 22 41 14 5 15 24 20 18 18 19 25 24 25 28 29 27 33 36 37 38 36 34 32 32 30 28 27 28 25 25 26 26 28 30 31 30 30 31 32
38 29 31 36 37 38 29 17 25 26 31 12 9 16 30 22 32 31 28 26 30 29 29 28 28 28 31 33 35 35 32 29 30 30 30 32 29 26 23 22 22 24 26 29 31 32 31 31 32
28 29 27 31 31 14 26 24 49 20 9 9 17 29 26 28 27 27 26 30 29 28 29 29 30 30 30 32 32 26 26 27 29 29 34 34 29 25 23 21 20 23 28 30 31 33 33 33 31
28 28 8 4 4 12 8 17 53 35 39 34 22 29 33 19 22 30 34 33 31 27 28 30 25 26 23 24 22 21 21 24 27 29 34 33 29 26 24 22 21 22 27 32 34 34 34 34 33
21 21 16 7 8 20 27 22 48 45 42 35 36 34 17 19 26 34 27 30 29 24 27 26 24 22 19 20 17 15 18 25 27 31 37 35 29 26 25 25 23 23 26 29 32 34 35 34 34
27 30 39 38 39 9 33 47 58 56 48 34 11 21 21 32 26 25 22 21 24 24 25 21 19 18 16 16 18 23 27 32 35 38 38 35 31 28 27 29 28 28 28 27 28 31 32 34 33
29 30 17 13 4 11 15 39 40 39 38 38 46 36 32 28 24 31 33 31 18 18 17 14 11 12 15 17 23 28 32 37 41 43 41 37 35 31 31 31 30 30 31 30 29 30 32 32 32
40 37 37 31 27 15 17 18 56 61 47 42 43 40 38 40 17 22 20 13 8 7 10 12 18 23 27 31 29 31 32 34 40 45 44 42 41 39 37 35 34 33 32 33 33 31 32 31 32
33 31 30 16 18 32 37 31 49 53 63 63 61 47 48 47 46 39 30 43 42 44 41 40 39 43 39 40 44 40 37 37 36 46 50 47 48 46 45 44 42 39 37 36 36 34 34 34 33

GFSSGP_700_spd_015.txt.gz
Wind_Speed
6 7 7 8 7 4 6 3 3 4 8 11 11 10 11 11 10 6 9 9 6 5 4 5 6 7 7 7 8 8 8 9 9 8 7 6 7 7 7 8 8 8 6 7 6 7 6 6 5
7 8 8 9 7 6 4 1 1 4 7 10 11 11 11 11 11 10 6 7 7 5 5 7 8 8 9 9 9 9 9 9 8 7 7 7 6 7 8 7 8 7 6 7 7 9 8 8 6
7 7 7 5 5 2 2 2 5 7 9 10 10 9 10 11 9 9 7 6 6 8 9 9 10 11 11 11 10 10 10 9 8 8 8 6 6 6 7 7 7 7 6 7 8 9 9 9 9
7 6 7 9 9 7 4 5 7 7 8 9 10 9 10 10 10 8 7 7 6 7 7 9 10 12 13 13 12 12 11 11 10 9 8 7 6 6 8 9 8 8 8 8 9 9 10 10 11
6 7 8 9 9 9 8 9 9 7 8 9 10 11 10 9 9 8 9 8 7 8 9 10 11 12 14 14 13 13 12 12 11 10 9 9 8 9 10 10 10 10 9 10 10 11 11 12 12
7 7 8 10 9 9 8 7 8 7 9 9 12 14 13 6 5 8 9 9 10 10 11 11 12 13 14 14 14 15 15 14 13 13 12 11 11 11 11 11 12 12 11 11 12 12 13 13 14
9 11 14 13 12 9 7 9 9 10 11 11 14 16 7 7 15 13 11 10 10 10 11 11 12 14 14 15 15 16 16 17 16 16 15 15 13 13 13 13 13 13 13 14 14 15 16 17 17
11 13 15 13 13 14 12 10 13 15 14 15 16 15 16 14 13 13 13 13 13 12 12 12 13 15 16 16 16 17 17 18 18 17 17 17 15 15 14 14 13 13 15 16 16 17 19 20 21
14 16 18 16 15 15 16 18 19 22 18 18 15 15 17 18 17 16 14 14 14 14 14 15 15 15 16 18 18 19 19 19 19 18 18 18 18 17 16 15 15 15 16 16 17 18 19 21 22
20 22 22 19 20 22 22 24 22 26 22 15 18 16 19 18 17 17 17 16 14 14 16 18 18 18 17 18 19 19 20 20 20 20 20 20 20 19 18 17 17 17 17 17 17 18 20 21 21
27 27 22 26 23 25 25 25 25 28 25 17 20 20 18 18 15 14 15 15 15 17 18 19 20 20 20 20 20 20 20 21 21 21 22 22 22 21 20 19 18 18 18 18 18 19 20 21 22
30 31 27 29 27 28 28 29 30 29 24 21 19 24 22 20 19 18 18 17 18 18 17 18 21 22 21 22 22 22 22 22 23 22 24 24 23 23 23 21 20 19 19 19 19 19 20 20 21
32 32 32 31 33 32 31 29 33 33 24 24 24 26 25 25 24 24 23 20 19 18 17 18 20 21 22 24 23 24 24 24 24 25 26 26 26 25 25 24 23 22 21 21 20 20 21 22 22
35 34 34 36 35 34 34 33 38 31 27 29 28 27 27 28 26 28 27 26 24 22 22 24 24 25 26 26 26 25 26 26 27 28 28 28 28 28 28 27 26 25 24 23 22 22 22 23 24
33 35 37 38 39 40 36 39 39 33 33 31 30 30 29 28 29 32 33 32 30 28 28 27 27 30 30 29 29 30 29 29 30 29 30 30 31 31 30 29 29 28 27 26 24 24 23 24 25
37 39 42 37 35 38 36 43 36 35 39 39 35 35 36 33 33 33 33 33 33 35 35 35 35 34 34 34 32 33 34 33 33 33 33 33 34 34 34 33 32 31 30 28 27 26 25 25 26
33 35 39 36 33 41 39 46 43 38 41 43 41 39 38 37 34 34 34 36 38 39 41 42 42 41 39 38 38 37 37 37 38 38 37 38 38 38 37 36 35 34 33 31 30 28 27 27 27
39 37 35 37 36 43 49 53 48 43 43 44 43 40 34 32 29 25 26 31 35 37 41 43 44 44 42 42 43 44 41 41 41 40 40 41 43 42 41 39 39 38 36 34 31 30 30 29 28
35 39 42 42 39 44 49 53 48 44 41 37 35 33 27 20 18 14 17 23 26 28 30 34 40 40 43 43 43 44 43 42 42 41 39 41 44 45 44 42 42 40 38 35 35 33 32 30 29
34 37 42 47 40 41 46 51 46 38 35 34 31 20 15 9 7 6 7 6 10 15 22 29 36 38 38 42 43 43 43 43 41 42 42 43 44 43 44 45 44 41 38 38 36 34 33 31 31
41 40 41 41 36 39 44 41 19 32 31 13 17 17 3 2 2 7 14 17 20 25 28 28 29 33 36 36 40 41 39 39 39 40 42 44 44 44 43 44 45 41 40 39 38 37 34 33 31
33 24 30 31 30 17 24 16 32 17 16 14 10 8 9 14 16 23 29 25 42 36 32 33 33 29 28 28 27 28 30 30 29 33 37 42 43 43 43 43 44 43 42 41 39 38 36 34 31
27 19 24 30 32 33 19 17 19 23 2 13 14 4 18 23 27 30 30 45 29 27 26 25 25 34 31 27 27 29 29 29 30 33 35 39 42 43 43 42 45 46 44 42 40 39 36 34 33
21 25 27 27 28 12 20 17 5 4 11 10 9 10 29 33 32 29 26 27 30 26 29 34 29 29 28 27 24 25 30 32 33 34 35 38 42 43 44 43 45 46 45 43 41 39 37 36 36
22 20 7 5 2 8 7 16 24 8 17 26 21 29 30 20 17 26 24 29 28 28 33 30 26 25 26 28 28 28 29 30 31 33 34 36 39 42 42 43 44 45 44 42 42 40 39 37 35
22 25 16 6 6 14 26 21 32 27 26 29 20 7 9 18 22 26 25 21 19 22 25 32 25 25 27 27 30 28 27 26 25 27 31 33 36 39 41 42 44 45 45 44 44 41 39 37 33
25 32 39 36 33 13 28 39 55 41 10 3 16 21 20 24 34 37 34 34 36 34 29 24 17 15 19 23 24 23 23 24 23 23 25 28 31 34 39 42 45 45 45 45 44 42 39 36 34
34 32 15 13 3 9 13 19 36 28 26 30 27 34 34 34 36 42 46 45 46 49 46 40 34 30 26 23 20 17 16 18 19 19 18 19 23 28 33 40 44 46 48 48 46 45 41 38 35
28 32 33 30 22 5 7 15 41 27 36 41 38 38 35 37 39 37 33 35 36 37 42 40 41 39 38 37 37 34 32 30 28 26 25 23 24 24 28 35 41 46 48 49 49 46 42 40 37
28 33 31 19 11 18 18 18 43 30 25 34 42 37 41 43 42 40 37 30 29 31 36 40 44 47 48 48 50 52 47 42 41 36 35 36 37 36 36 34 41 47 49 51 53 51 47 43 41

GFSSGP_700_spd_021.txt.gz
Wind_Speed
7 6 7 7 3 2 4 1 2 4 4 9 10 8 6 5 4 5 10 8 5 1 2 3 5 6 6 6 7 9 11 12 12 11 11 11 11 11 11 10 8 7 8 8 8 7 5 5 5
7 7 7 4 2 5 5 1 3 4 8 10 10 9 7 4 5 8 8 7 5 2 2 2 3 6 7 7 8 8 9 9 10 10 11 11 10 10 9 7 8 6 8 6 6 6 6 6 5
7 6 4 3 2 6 4 3 4 9 9 9 10 9 5 6 8 7 7 8 8 6 6 4 4 6 8 9 10 10 10 10 11 11 11 9 9 8 8 7 6 6 7 7 6 6 5 6 5
6 5 3 1 6 7 5 7 9 8 9 8 9 6 10 10 9 8 7 6 8 8 9 8 7 7 8 10 11 12 12 12 13 13 12 11 10 9 9 7 7 8 8 8 8 8 6 6 6
5 4 3 5 7 5 7 8 7 7 8 10 9 5 12 9 6 5 7 7 7 8 9 10 10 10 9 10 13 13 13 14 14 14 14 14 12 12 10 9 9 9 9 9 9 9 8 8 8
5 4 5 7 6 7 7 5 6 6 7 10 12 11 8 6 8 11 13 11 9 8 9 10 11 12 12 12 13 14 14 15 15 15 16 15 15 14 13 11 11 11 10 10 10 11 11 11 11
5 6 8 10 10 7 5 7 5 5 10 9 13 12 6 12 12 13 13 12 11 11 10 10 11 12 14 14 14 14 15 16 15 16 17 16 17 16 16 14 14 13 12 12 12 12 13 13 13
8 10 9 7 6 11 11 14 12 13 11 13 13 8 6 16 14 14 14 15 13 13 13 13 13 13 14 15 15 16 17 18 16 17 18 18 19 18 18 17 15 15 14 14 14 14 14 14 14
13 12 11 13 10 6 15 18 22 19 15 14 15 10 13 15 14 14 13 13 16 17 16 17 17 16 16 16 17 19 20 21 20 19 20 20 20 20 20 19 18 17 17 16 16 16 16 16 16
18 14 13 14 15 19 17 21 24 24 22 16 19 18 19 19 17 16 15 14 13 14 18 19 20 20 20 19 19 20 20 21 22 22 22 23 24 23 23 22 22 20 21 20 19 19 19 18 18
23 25 17 21 24 25 28 27 29 28 25 20 18 21 23 24 20 20 18 18 18 17 17 18 20 21 23 22 22 22 21 22 22 23 23 25 27 26 26 25 24 24 23 22 22 22 21 21 21
27 28 26 26 28 30 29 28 32 31 29 21 21 24 25 25 26 26 23 21 22 21 18 19 20 22 23 24 24 24 24 23 24 24 25 26 27 27 27 27 27 27 26 25 24 23 23 22 21
30 31 29 30 30 33 32 30 32 35 31 25 25 26 28 27 27 29 28 25 25 25 25 25 24 24 24 26 25 26 25 26 26 27 28 28 29 29 29 29 29 29 28 27 27 25 24 23 23
30 36 35 34 35 34 34 31 29 29 27 25 23 25 27 29 28 29 29 28 28 29 29 29 29 27 28 28 27 27 27 28 29 29 29 29 30 30 31 31 32 31 30 30 30 28 27 26 25
30 33 37 37 32 30 24 34 29 22 23 30 27 28 30 33 31 32 34 35 34 35 35 35 34 34 34 32 31 32 32 31 32 32 32 32 33 33 33 34 34 34 33 33 32 31 30 29 28
35 28 26 20 24 27 23 25 31 24 31 34 34 33 32 31 32 33 33 36 38 40 41 41 41 40 39 39 37 36 36 36 36 36 36 36 36 36 35 36 36 36 36 35 35 34 34 32 31
17 24 24 23 21 26 23 21 32 37 36 37 33 29 27 26 25 30 32 33 35 36 38 41 43 44 42 42 43 43 42 42 40 40 41 40 39 40 39 39 38 38 38 38 38 38 37 36 35
25 28 29 25 26 32 32 35 33 34 36 32 26 23 21 20 24 28 28 24 27 27 26 28 32 34 35 37 40 45 46 46 46 45 46 46 44 44 43 42 41 41 41 41 41 39 39 40 38
29 30 32 31 29 32 33 32 30 34 31 22 16 23 25 27 33 29 21 14 12 11 10 10 13 17 21 24 28 32 35 39 45 49 51 51 49 47 46 45 44 44 44 43 42 42 43 43 41
31 29 31 31 23 24 29 32 34 4 7 24 22 16 16 21 23 16 13 12 10 11 11 13 17 22 19 25 27 28 31 35 39 42 47 53 52 51 50 49 48 46 46 46 45 45 45 46 43
27 28 30 30 27 28 20 21 21 12 21 20 16 17 21 20 16 12 12 13 15 16 18 18 21 24 23 21 26 31 31 31 36 40 43 47 52 52 52 53 52 50 50 48 47 46 47 47 44
20 17 22 25 18 17 17 16 18 19 13 12 9 21 20 18 13 9 13 19 22 21 18 21 22 18 19 21 23 27 31 34 35 36 38 43 47 53 54 54 55 54 54 53 51 48 48 49 47
18 21 19 21 25 24 20 18 12 16 13 12 16 15 12 10 13 21 20 17 17 13 13 14 13 15 18 20 21 25 29 33 35 37 38 39 43 48 53 53 55 56 55 54 54 52 51 51 49
23 24 23 24 18 12 12 11 8 4 2 15 12 12 15 20 23 23 24 20 17 18 19 18 18 19 19 20 22 24 25 26 30 34 37 39 40 43 47 50 53 55 56 54 54 53 52 51 52
17 18 11 11 12 14 16 11 17 6 12 21 23 23 29 29 26 26 23 24 24 25 26 25 27 27 27 30 29 27 27 25 23 23 26 29 33 36 40 45 48 52 54 54 54 54 53 51 51
20 15 13 10 14 19 28 19 22 23 23 23 30 35 39 32 29 26 31 29 29 33 35 36 38 40 38 35 33 30 28 27 29 25 23 22 23 27 31 35 42 46 51 53 54 55 54 52 53
16 19 19 19 29 14 28 37 35 33 34 33 37 41 41 35 29 29 31 31 34 36 37 41 41 46 44 38 35 34 31 28 29 31 32 33 34 30 28 29 32 38 46 50 53 55 55 52 52
19 21 16 12 5 15 17 29 27 26 26 32 35 36 34 33 34 32 30 29 27 27 30 33 36 38 41 43 43 38 37 38 39 41 42 40 40 40 33 30 31 31 36 43 48 51 54 54 55
20 25 23 25 28 13 16 21 32 27 20 27 29 29 30 28 25 29 32 38 41 43 45 46 40 40 39 39 41 42 43 44 47 47 42 41 41 42 42 36 34 34 33 34 40 45 49 52 53
30 32 28 27 14 25 28 23 30 39 36 29 25 21 22 25 32 40 52 53 52 47 43 37 32 33 35 37 38 40 41 44 46 46 47 44 42 42 43 43 40 38 39 37 36 39 45 50 53

GFSSGP_700_spd_024.txt.gz
Wind_Speed
7 6 7 5 7 1 3 3 4 3 0 10 10 8 6 7 5 5 10 9 6 1 2 3 5 5 6 7 8 9 10 10 11 10 10 10 11 10 9 7 7 5 8 8 6 4 4 3 2
7 6 6 11 5 6 8 6 2 7 9 10 9 8 6 1 6 8 7 8 6 3 2 2 3 5 7 7 7 6 7 8 9 9 10 10 9 8 7 7 6 5 8 6 5 4 4 4 4
7 6 6 2 3 10 6 7 7 8 10 9 10 8 5 5 8 8 8 8 8 6 3 4 5 5 7 8 8 8 9 8 9 9 9 9 7 7 7 7 7 7 9 6 5 6 4 4 4
6 4 6 5 6 6 3 7 10 6 9 6 8 4 10 10 9 7 6 6 7 8 7 5 5 6 7 9 9 10 10 10 10 10 10 9 9 9 9 7 7 7 8 7 7 7 6 6 6
6 6 4 6 5 5 7 8 6 5 7 10 9 3 8 9 6 6 8 10 8 7 8 8 8 8 8 9 10 11 11 11 12 11 11 12 11 11 11 9 9 9 8 8 8 7 8 8 8
6 5 1 8 4 6 10 7 7 7 6 11 11 12 9 8 9 12 12 11 10 9 9 7 9 11 11 11 11 11 12 13 13 13 13 14 13 13 13 12 12 11 11 10 11 11 11 10 10
5 5 5 9 7 6 8 9 7 7 9 10 17 15 6 11 8 12 13 13 13 12 11 10 11 11 12 13 13 13 13 13 14 14 15 15 16 16 16 15 14 13 13 12 13 13 13 12 13
7 9 7 6 6 9 14 12 13 11 10 11 16 7 9 13 18 15 14 14 13 15 13 14 13 14 13 13 14 15 15 15 14 14 17 17 17 18 18 17 16 16 15 14 13 13 14 14 14
11 12 9 8 11 7 13 17 17 18 17 13 20 15 12 18 18 18 16 16 16 14 15 16 17 16 16 16 15 16 17 18 18 17 17 18 18 18 19 19 18 18 18 17 16 15 15 15 15
14 17 14 10 11 17 16 19 21 24 24 18 18 15 19 24 19 18 18 18 18 18 16 16 17 18 19 19 18 18 18 19 19 19 20 21 20 20 21 21 20 20 20 20 19 18 18 17 17
20 20 16 18 19 24 26 25 26 27 29 21 23 19 20 24 28 26 20 20 21 20 21 20 18 19 20 21 21 20 21 20 20 20 20 22 23 25 23 22 22 22 23 22 21 21 20 20 18
22 22 21 23 22 26 28 26 28 28 30 26 23 24 26 26 25 25 27 25 25 25 24 23 22 22 22 22 22 22 23 23 23 23 23 23 23 26 24 25 25 25 25 24 23 23 22 22 21
23 23 25 23 31 29 31 27 27 27 24 25 21 22 24 26 27 27 28 28 27 25 27 29 27 27 26 25 24 24 24 24 25 26 26 25 25 26 26 27 27 27 27 28 26 26 25 24 24
28 31 31 31 31 33 31 23 19 23 20 22 22 22 24 28 29 30 29 27 28 29 27 30 34 30 30 29 27 25 26 27 26 28 29 27 27 29 28 29 29 29 28 30 28 29 28 27 26
25 29 33 33 19 18 20 28 24 22 23 25 28 31 29 29 32 31 29 31 34 36 36 35 36 36 34 31 30 30 29 30 30 30 32 31 31 31 31 32 32 31 30 31 31 31 30 30 29
30 28 25 15 19 23 23 28 22 24 31 32 28 27 28 26 27 28 33 36 36 37 39 38 39 41 40 37 36 36 35 34 34 34 34 35 34 34 35 35 35 34 33 33 33 33 33 32 32
18 20 19 21 14 23 23 24 33 35 37 33 25 23 24 23 29 30 31 32 29 31 35 35 36 39 42 41 41 42 42 42 40 39 39 39 38 37 39 38 38 38 37 36 36 36 35 35 35
19 22 26 28 24 29 33 35 30 32 29 27 24 22 14 24 32 30 26 27 26 25 25 25 24 26 29 30 31 34 40 43 45 43 44 44 43 41 42 42 42 42 40 39 39 39 38 37 37
26 27 27 27 28 27 28 33 32 28 15 13 13 18 21 27 33 34 27 20 18 14 14 12 10 10 11 17 19 21 26 31 38 43 45 47 48 47 46 46 46 46 44 43 42 42 42 42 40
26 28 30 27 21 22 29 32 28 14 18 11 19 21 29 30 29 20 10 8 7 8 9 10 12 13 12 14 16 19 25 28 30 34 39 42 45 47 48 49 49 49 48 47 47 46 46 45 43
27 25 23 23 23 22 19 21 21 18 24 23 20 28 32 24 16 13 10 8 10 11 14 17 15 15 14 14 14 16 19 22 29 33 34 37 41 44 44 46 50 52 52 50 50 50 49 48 46
16 12 14 18 18 10 16 13 16 17 14 21 19 27 27 20 16 14 10 13 17 18 18 17 15 16 16 16 18 17 17 18 21 26 30 33 34 38 42 42 44 51 54 52 52 52 51 50 49
12 18 20 21 23 23 16 15 6 15 15 16 22 22 17 16 15 14 18 18 17 17 16 18 19 15 14 14 17 18 20 22 21 21 22 26 28 30 34 39 41 43 48 52 53 55 55 55 52
19 19 19 17 16 6 4 9 5 2 9 13 17 19 15 16 18 22 22 20 19 19 18 18 19 21 21 21 21 20 20 22 24 25 25 25 22 22 26 28 32 37 42 45 49 53 56 57 57
8 9 7 4 5 6 2 14 17 16 19 19 19 21 22 24 25 24 21 19 18 17 18 20 21 23 25 26 25 26 25 27 28 28 26 25 25 24 21 21 22 25 31 37 43 48 51 55 58
10 11 7 5 2 10 29 14 20 18 24 28 31 29 31 28 26 25 25 21 21 20 21 22 23 24 25 27 28 25 26 26 26 29 30 30 30 29 29 29 27 26 25 29 33 40 46 48 52
5 10 13 19 23 10 15 21 31 25 23 27 28 33 34 30 21 21 23 24 23 24 26 29 32 33 36 39 35 34 34 31 29 30 31 32 35 36 35 35 35 33 32 30 31 34 37 43 47
14 14 9 6 3 5 7 14 19 25 23 25 29 31 28 28 27 25 25 24 24 30 35 38 42 45 46 46 46 42 39 37 35 35 35 36 38 38 38 38 38 38 38 35 34 34 35 37 41
10 15 19 19 20 3 9 13 25 26 23 22 20 25 25 28 28 29 29 30 33 42 47 49 49 48 48 44 41 37 35 36 38 38 35 34 34 33 35 36 37 38 39 40 39 37 37 37 38
26 29 28 17 14 24 27 27 35 32 29 26 27 25 29 32 31 36 38 47 52 51 54 54 54 52 49 43 39 41 42 40 39 37 37 37 36 36 35 33 32 34 37 39 39 40 40 40 40

GFSSGP_700_spd_027.txt.gz
Wind_Speed
7 7 6 7 8 9 12 7 4 4 7 9 9 7 5 5 5 4 10 9 6 3 1 3 4 5 6 9 11 10 10 11 10 10 10 10 11 10 9 8 7 7 7 5 5 5 6 5 4
8 8 9 14 12 9 12 6 7 8 8 8 5 5 5 5 7 7 9 9 5 4 1 1 3 4 6 6 7 8 8 8 8 8 8 8 8 7 7 5 5 6 7 5 5 5 6 5 4
7 7 7 6 9 9 7 5 7 11 7 7 8 4 5 8 8 5 6 8 6 3 3 4 4 4 6 7 8 8 8 8 8 8 7 7 6 7 7 5 5 6 6 5 5 6 5 5 5
7 5 9 10 9 5 3 7 7 6 6 5 6 4 6 9 7 4 5 6 7 5 5 5 5 5 6 7 9 9 9 10 10 10 9 8 9 9 8 6 5 6 4 4 5 5 5 5 5
5 5 9 7 6 3 9 8 5 5 6 8 6 6 10 7 4 5 8 10 9 6 5 8 7 7 7 8 9 10 11 11 11 11 11 10 11 10 10 8 7 6 6 6 6 6 6 6 7
2 4 3 3 3 5 11 6 7 8 9 11 11 10 12 9 8 10 11 12 10 10 7 8 9 9 10 10 10 11 12 12 13 12 13 12 12 11 12 10 10 9 9 8 9 8 8 9 9
6 5 3 2 4 2 6 11 10 9 8 12 15 15 8 9 10 12 13 13 13 11 11 10 10 11 11 11 12 12 13 14 13 13 13 14 13 13 14 13 13 12 11 11 11 10 11 12 12
7 7 3 3 4 8 10 10 12 12 8 14 13 9 12 12 14 17 16 14 15 13 11 13 13 13 13 13 13 13 14 15 15 15 16 16 15 14 15 16 15 15 13 13 12 12 13 13 14
9 9 5 1 4 2 6 14 20 19 18 15 19 15 11 12 13 17 16 16 16 16 15 14 15 16 15 16 16 16 15 16 16 16 17 18 16 16 17 18 17 17 16 15 15 14 14 14 14
10 10 6 6 9 14 15 17 22 24 24 17 17 15 18 20 20 19 15 16 18 19 19 17 17 16 18 18 18 18 18 17 17 17 17 18 19 18 19 19 19 18 17 17 16 16 16 15 16
16 14 12 9 14 19 20 20 22 24 26 20 18 17 15 20 25 27 25 21 20 21 21 22 21 21 19 19 19 20 20 20 19 19 18 19 19 20 19 19 19 19 18 18 18 19 18 17 16
17 16 14 15 15 18 23 24 21 22 22 20 17 16 18 17 18 22 25 26 25 25 24 25 24 25 23 21 20 21 22 22 22 21 21 21 21 20 21 20 21 21 21 21 20 21 19 20 19
19 20 21 22 21 22 26 27 24 15 16 15 16 13 13 14 19 21 22 25 25 25 25 25 27 27 28 27 25 23 22 23 24 25 25 24 23 22 22 23 23 24 23 23 23 23 22 22 21
24 25 24 23 26 21 16 15 18 14 19 19 17 18 22 24 27 28 27 27 28 31 31 32 30 28 29 31 30 28 26 25 25 27 27 27 26 25 24 25 26 26 25 26 26 26 26 26 25
20 24 27 20 10 15 17 19 18 19 24 27 23 23 26 31 30 32 33 31 31 32 33 33 35 36 34 32 33 32 31 30 28 28 30 30 29 29 27 28 29 29 28 28 27 28 29 29 28
25 24 19 14 12 18 19 23 23 28 32 30 24 18 24 26 24 26 28 29 29 30 31 32 34 32 33 35 36 35 35 33 33 32 32 33 33 32 31 31 32 32 32 31 30 30 31 30 30
17 15 17 13 11 18 22 30 30 33 31 26 19 23 27 28 28 26 26 25 27 26 25 27 28 30 28 30 35 40 40 40 40 40 38 37 38 37 35 35 35 36 36 35 34 34 33 33 32
17 15 16 21 21 28 29 36 30 25 17 15 17 17 22 22 23 26 28 29 28 27 23 21 21 21 22 23 25 28 34 38 42 44 44 43 44 43 42 40 39 39 39 39 38 36 36 36 36
19 20 25 26 25 29 33 30 25 22 16 13 13 22 23 24 25 28 32 29 16 13 13 11 10 9 10 12 15 18 20 24 28 33 37 39 42 45 45 45 45 44 42 41 41 41 41 40 40
22 27 29 28 20 19 21 25 26 22 26 18 21 25 24 26 23 23 22 11 7 6 7 8 10 11 12 12 14 17 19 21 24 25 27 29 32 35 39 41 42 45 46 46 45 44 44 44 44
23 24 25 18 15 18 24 25 25 15 18 17 20 20 23 25 27 23 16 12 9 9 12 13 13 14 15 16 17 17 16 18 20 22 24 27 29 32 35 37 37 39 41 43 46 48 48 47 47
19 12 10 11 16 13 13 9 12 6 17 20 22 24 23 23 25 21 15 12 12 15 14 15 13 13 15 14 16 17 17 17 15 14 15 18 22 25 30 34 35 34 36 39 41 45 50 51 50
12 11 16 21 20 21 20 13 4 14 14 15 15 19 22 22 20 17 16 16 18 17 16 14 16 17 15 14 15 15 17 18 18 18 17 16 17 18 20 24 28 29 30 33 35 38 44 51 53
12 14 16 15 18 4 4 8 4 2 7 8 14 19 20 20 18 18 18 19 17 16 15 16 16 15 15 16 16 17 18 18 19 19 19 19 17 18 17 19 24 26 25 26 29 33 36 42 49
14 10 4 2 2 5 10 13 14 13 14 13 18 17 19 20 21 22 21 19 19 17 17 16 15 15 15 18 19 20 21 24 24 23 22 21 22 23 23 22 22 25 26 25 26 28 32 35 40
12 9 4 5 3 5 20 10 8 10 12 14 18 21 23 23 24 24 24 23 23 23 22 19 19 20 20 21 23 28 31 30 30 31 29 30 31 31 28 28 27 29 30 30 28 27 28 31 35
8 11 11 15 23 8 8 10 16 21 20 16 18 21 24 25 24 24 26 27 26 26 26 25 29 31 31 33 34 36 34 33 33 32 33 32 33 36 37 37 34 32 33 32 32 33 31 30 31
14 11 7 7 1 4 8 10 11 12 20 18 18 16 19 20 22 25 29 34 38 41 43 44 42 46 51 51 48 42 35 31 32 36 36 35 32 32 35 37 38 37 36 36 34 34 36 37 36
11 14 13 13 16 4 2 9 17 18 22 19 17 20 22 26 31 37 41 42 39 43 48 51 49 47 46 44 42 42 42 38 32 30 34 39 36 33 32 33 35 36 36 37 38 36 35 37 37
16 24 24 15 8 14 18 28 34 32 17 13 26 28 28 28 31 35 42 51 56 52 41 36 39 39 38 38 35 33 34 31 32 32 33 35 37 39 38 37 37 38 38 38 40 41 41 41 39

GFSSGP_700_spd_030.txt.gz
Wind_Speed
7 7 10 9 7 9 7 5 6 5 4 6 6 5 6 6 6 3 7 5 4 3 1 2 3 5 8 12 14 13 13 13 12 11 11 10 10 10 9 9 9 10 8 8 6 7 6 6 5
9 11 13 14 12 11 7 3 4 6 5 6 4 3 4 7 7 6 8 6 4 3 1 3 3 3 4 6 8 10 12 12 12 11 11 10 9 8 7 7 7 7 6 6 5 7 6 6 5
8 11 10 4 8 6 4 3 8 9 5 5 5 1 5 7 7 6 6 7 5 4 2 2 3 5 6 7 7 7 8 8 9 9 9 8 8 8 6 6 6 6 5 4 4 5 5 6 7
6 10 10 9 7 6 5 5 5 5 3 4 6 3 6 7 5 4 7 8 9 6 4 3 4 5 6 8 9 10 10 10 10 9 9 8 9 9 7 6 7 6 4 4 4 4 6 5 6
5 5 7 6 4 1 5 6 4 3 4 4 5 5 10 7 3 4 7 8 9 7 7 6 6 6 7 9 10 11 12 12 12 12 12 11 11 11 10 8 8 7 6 5 5 6 7 7 8
2 2 3 4 4 2 5 3 9 8 9 9 8 7 9 6 7 7 7 10 9 8 8 8 8 8 9 9 11 12 13 13 14 14 14 13 14 13 13 11 10 9 8 7 7 7 8 8 9
3 2 1 1 1 1 5 8 10 7 11 10 13 14 6 4 7 10 13 11 11 9 9 10 11 11 10 10 11 12 13 14 15 15 15 15 15 14 15 14 13 12 11 10 9 9 10 10 11
6 5 1 3 3 3 4 6 11 11 13 15 12 12 12 14 14 12 12 13 13 11 10 11 12 13 12 13 13 13 13 15 16 16 16 16 17 15 16 16 14 14 13 12 12 11 11 12 12
7 7 4 6 6 7 8 10 14 17 19 19 17 13 13 16 15 16 16 14 15 15 14 13 14 13 14 15 15 16 15 16 16 16 16 17 17 15 16 17 16 16 15 15 14 13 14 13 13
9 8 6 7 10 11 12 16 19 20 21 14 17 15 16 16 17 18 17 15 16 19 19 17 17 17 17 16 16 17 18 18 17 17 17 18 18 17 17 18 17 17 17 17 16 16 15 15 15
13 10 9 8 13 15 14 15 16 21 18 18 15 14 16 19 20 22 23 23 22 20 21 21 21 21 21 20 18 18 18 19 20 20 19 19 19 18 18 17 17 18 18 18 18 18 17 17 17
14 10 10 10 11 14 17 18 17 18 15 14 12 11 13 11 13 19 20 21 22 23 22 23 24 25 25 24 23 22 21 21 21 21 22 21 20 20 19 19 19 19 19 20 19 21 19 19 19
18 18 18 18 14 16 19 17 14 5 11 8 9 14 14 14 17 20 20 22 26 25 22 23 27 26 26 28 27 26 25 24 24 24 25 24 23 22 21 20 22 21 21 21 21 22 22 21 22
20 21 20 17 17 14 10 11 14 9 12 10 16 19 21 23 25 26 27 27 26 28 29 28 28 28 28 28 27 29 28 28 27 28 27 27 27 26 25 22 23 25 24 23 24 24 25 24 24
18 20 22 15 6 10 14 17 13 15 19 22 24 23 22 24 27 28 29 28 26 25 27 29 30 29 28 29 32 32 31 31 31 29 30 30 30 29 28 27 25 27 28 28 27 26 27 27 27
22 21 16 11 12 14 14 19 16 22 24 23 21 22 24 24 24 24 26 26 25 23 22 22 25 27 28 26 28 33 36 35 33 32 31 31 31 31 31 31 29 30 32 32 31 30 30 30 29
16 13 16 18 17 16 18 26 27 25 26 19 20 21 22 23 22 19 18 19 22 24 26 25 22 22 24 25 25 26 32 36 37 36 34 34 34 34 34 34 33 33 35 35 35 35 34 34 33
14 16 19 21 20 22 25 30 30 23 12 17 15 20 23 24 22 19 22 22 23 21 18 16 16 18 20 20 19 20 22 30 37 39 40 40 40 40 41 40 40 39 38 37 37 38 38 37 37
21 22 23 23 19 28 30 29 18 13 17 17 22 23 25 26 23 22 22 24 21 13 10 10 8 9 10 10 11 13 15 19 24 30 36 39 40 40 40 40 40 42 41 41 41 41 41 41 43
21 22 23 24 21 22 19 20 20 22 19 23 25 24 26 24 20 18 17 17 12 9 7 7 9 10 10 11 12 14 16 18 19 22 25 28 30 31 31 34 35 36 37 38 41 44 44 44 45
20 23 22 23 16 15 23 26 16 18 18 19 18 18 19 17 19 19 17 13 13 12 11 12 10 9 9 10 12 14 14 15 17 19 21 22 25 28 29 32 33 31 33 34 35 38 42 45 48
25 17 14 12 11 10 15 8 12 19 13 16 18 20 21 23 19 18 18 16 15 14 15 13 13 13 12 11 11 12 12 13 14 15 17 20 20 21 23 25 26 27 28 29 32 34 36 40 45
8 9 11 15 19 21 21 13 5 7 17 18 17 18 20 19 18 18 18 18 18 18 16 15 16 17 17 15 14 14 13 14 16 17 18 19 20 22 23 23 24 23 21 22 25 29 31 34 38
11 13 16 20 22 6 18 16 7 11 3 8 10 14 18 20 19 20 20 21 22 22 21 19 19 20 19 19 18 15 13 14 16 17 17 19 21 23 24 25 25 26 26 25 24 25 26 28 32
17 11 3 3 2 6 15 4 14 13 11 9 13 18 22 20 20 22 24 25 25 25 24 24 20 20 20 19 19 20 18 17 18 20 21 22 24 26 28 29 31 32 31 31 31 29 29 29 29
16 20 9 6 3 4 8 8 10 12 8 8 10 14 16 19 22 24 26 26 26 24 22 26 30 35 37 37 33 32 31 32 37 36 33 30 31 32 31 31 30 32 35 36 36 36 34 34 35
13 20 21 16 14 5 9 14 15 13 14 14 6 10 14 18 20 21 21 23 24 25 31 38 42 44 44 44 47 48 44 46 47 41 41 43 44 40 40 37 37 37 37 40 40 40 39 38 37
21 14 10 10 2 5 7 15 16 9 11 5 8 9 13 16 17 19 23 25 32 37 37 38 42 47 49 49 50 47 44 42 38 34 34 34 36 38 38 40 44 43 44 43 45 46 45 42 41
24 27 18 16 15 5 2 10 9 12 8 14 16 19 21 21 25 29 33 34 36 42 48 50 49 48 44 43 43 37 35 35 35 34 33 34 35 37 38 37 38 39 39 42 43 43 45 47 47
27 27 25 19 9 15 16 28 22 24 23 16 18 19 24 31 38 43 46 47 46 43 41 36 29 32 39 43 41 38 35 35 35 35 37 38 38 39 40 41 43 45 45 44 46 47 48 48 46

GFSSGP_700_spd_033.txt.gz
Wind_Speed
8 13 12 8 6 5 7 5 6 6 4 6 5 5 6 6 5 3 6 5 5 3 0 2 3 5 9 12 12 11 11 12 11 11 10 10 10 10 9 9 9 9 8 9 8 9 7 7 6
9 12 10 8 8 7 6 5 5 6 5 5 4 4 4 7 6 5 7 6 5 4 1 1 2 4 7 10 11 12 12 13 13 13 12 12 11 10 9 8 8 7 6 6 6 7 7 6 6
10 13 9 6 6 5 4 5 6 6 4 5 5 1 6 8 6 6 7 7 7 5 2 2 3 4 5 6 8 9 10 10 11 11 10 10 9 9 7 7 7 7 5 5 5 5 5 5 6
9 8 7 8 9 7 7 5 5 4 3 4 5 3 7 6 4 4 8 8 8 6 3 2 3 5 6 7 8 9 10 10 10 10 10 9 9 9 8 7 7 7 5 5 5 5 6 6 6
5 4 3 5 6 6 4 4 5 5 3 4 5 6 9 8 4 4 5 7 8 6 5 4 4 5 7 8 10 11 12 12 12 12 12 11 11 11 10 9 8 8 7 6 6 6 7 7 7
2 2 4 4 5 3 2 1 5 6 8 7 8 8 6 4 5 6 4 7 8 7 7 6 6 6 6 8 9 11 12 13 14 14 14 13 14 13 13 11 10 10 9 9 8 8 8 8 8
2 2 3 4 4 4 3 3 5 7 8 8 12 10 3 9 10 10 12 8 7 8 8 8 8 8 8 9 10 11 13 14 15 15 15 14 14 15 15 14 12 12 11 11 11 10 9 9 9
6 4 5 5 6 6 6 7 8 9 11 12 12 11 14 11 13 13 14 13 10 10 10 11 11 10 11 11 12 12 13 14 15 16 17 16 15 15 15 16 15 13 13 13 13 12 11 11 11
7 6 4 6 8 8 8 9 11 14 15 17 19 17 16 15 15 14 13 14 12 12 13 13 13 14 14 14 14 14 14 14 15 16 17 18 16 15 16 17 16 14 14 14 15 14 13 12 12
8 8 6 6 10 9 10 12 16 18 15 15 17 18 20 19 19 18 17 16 16 16 17 16 15 15 15 15 15 17 18 17 16 16 16 17 17 17 17 17 17 16 16 16 15 15 15 14 14
12 10 9 9 11 11 11 12 15 17 17 19 15 12 13 16 20 21 21 20 20 20 20 20 19 20 19 18 18 18 18 19 20 19 19 18 17 17 17 18 18 19 18 18 18 18 18 17 16
12 8 8 8 10 12 14 16 15 17 14 9 11 11 11 13 14 17 20 20 19 19 19 20 21 22 23 23 22 22 22 20 20 21 22 22 20 20 19 19 20 20 20 20 20 21 20 19 19
16 14 14 13 12 13 15 15 15 5 6 5 10 14 18 17 19 20 20 22 24 24 23 22 22 22 22 23 24 22 24 24 22 23 24 24 24 23 22 21 22 22 23 23 23 23 24 23 22
19 19 18 15 12 17 12 8 10 10 8 10 17 20 20 23 25 26 26 26 26 25 26 27 27 27 26 25 24 24 23 25 27 27 26 27 27 27 26 25 24 24 25 25 26 26 26 26 25
16 17 19 19 7 9 12 14 11 11 14 20 23 24 22 21 22 25 26 25 24 23 22 22 23 24 23 23 24 27 28 29 28 30 30 30 30 29 29 29 27 26 28 29 29 29 28 28 28
20 19 16 7 13 13 15 18 13 14 22 24 27 24 20 19 19 19 20 19 17 16 17 17 19 19 19 20 22 25 28 31 33 32 31 32 32 32 32 31 30 29 30 32 32 32 31 31 31
15 13 15 17 16 14 15 20 19 20 23 26 21 19 19 19 19 15 14 14 17 18 18 16 17 18 20 20 20 22 24 26 29 33 35 34 34 34 34 32 32 32 31 33 35 35 35 34 34
13 16 19 21 19 18 21 25 24 21 19 15 17 18 21 24 23 21 18 18 17 14 11 10 9 9 13 16 16 16 17 19 22 26 31 35 35 35 36 36 35 36 36 35 36 37 38 37 38
21 22 23 24 21 25 25 27 14 7 14 20 22 23 25 26 23 21 19 18 17 14 9 7 6 5 6 9 10 11 12 13 15 18 22 26 30 35 38 41 42 41 41 41 43 44 43 40 40
24 25 27 24 19 21 24 18 14 20 18 17 22 26 25 18 16 14 13 14 14 11 10 9 9 9 9 8 8 9 11 13 14 15 17 19 22 25 26 29 32 35 37 40 42 43 45 47 44
26 27 24 22 19 19 18 22 18 18 17 25 19 18 17 14 14 13 13 12 10 11 12 12 12 10 11 12 13 13 13 13 13 14 16 16 16 18 20 23 25 28 29 30 34 38 40 43 44
25 22 22 20 15 9 8 7 12 21 25 19 17 15 14 15 15 14 14 14 14 15 15 16 15 15 15 15 16 18 17 17 16 17 18 19 20 19 20 22 23 22 22 22 25 29 33 37 39
20 12 9 12 14 18 20 15 10 16 19 17 17 16 14 15 17 16 16 17 18 20 19 21 21 19 19 17 18 20 21 20 20 19 19 19 21 22 22 23 23 25 25 24 23 23 26 28 30
11 11 11 15 17 6 19 21 5 15 16 16 15 13 13 17 18 19 18 19 19 21 22 23 19 16 15 16 18 19 23 25 24 23 23 22 22 22 24 26 28 31 33 33 30 29 28 29 30
18 12 3 4 2 6 6 11 21 12 16 11 9 11 15 19 21 20 19 19 21 23 22 20 17 18 23 27 30 34 37 38 37 37 37 36 32 32 34 34 32 32 34 37 37 36 35 35 35
22 22 9 7 3 4 9 10 9 21 19 19 17 17 17 15 16 18 18 20 21 22 23 23 24 28 32 38 44 46 43 41 41 41 41 41 44 45 45 49 48 44 43 44 42 40 42 42 41
17 24 24 17 11 4 11 17 16 16 18 21 17 15 14 14 15 15 17 19 20 22 25 28 33 40 46 49 50 50 49 47 45 42 38 33 35 37 39 40 41 43 42 42 43 47 50 49 51
27 15 10 14 2 5 7 13 17 9 18 22 18 14 15 15 16 17 19 21 24 28 34 39 45 49 50 49 46 44 41 41 42 42 39 37 36 35 37 40 41 42 44 44 43 43 43 43 43
25 26 18 17 22 6 2 10 12 11 16 18 15 15 17 18 19 20 22 26 34 39 44 47 48 46 43 41 40 40 43 43 42 39 39 39 37 37 38 40 42 44 46 46 47 47 48 49 48
31 31 31 25 13 17 16 32 16 12 14 14 19 23 22 20 24 29 36 41 41 38 37 37 37 33 32 35 36 36 33 31 31 33 36 38 39 41 44 45 46 47 48 50 53 54 53 54 54

GFSSGP_700_spd_036.txt.gz
Wind_Speed
11 15 12 10 5 5 8 7 7 7 5 7 7 7 8 7 7 4 5 6 6 5 4 3 2 4 8 9 9 8 8 8 9 8 8 9 10 10 10 11 10 9 8 7 6 7 6 5 4
12 11 7 6 8 9 8 7 6 6 6 6 5 6 5 8 7 8 7 8 7 5 3 2 1 1 4 7 9 10 10 11 11 12 12 12 11 11 11 10 9 7 6 6 6 5 5 4 4
12 10 6 5 5 6 5 5 4 5 4 5 5 4 7 7 7 8 7 7 6 4 3 1 1 2 3 4 5 7 8 9 10 11 11 10 10 10 9 8 7 7 6 6 6 5 5 4 4
10 8 4 4 9 9 8 6 6 5 5 7 6 4 6 4 3 2 4 7 7 5 3 1 0 2 4 5 6 6 7 7 8 8 9 9 9 9 8 7 6 7 6 6 6 6 6 5 5
7 6 2 6 7 7 5 6 6 5 4 5 6 6 7 2 1 2 2 3 5 6 4 2 1 3 4 6 7 8 9 9 10 10 10 10 10 10 10 8 7 8 7 6 7 7 6 6 7
2 2 3 5 8 6 3 2 1 3 4 4 6 7 5 2 3 3 4 6 4 5 6 5 4 4 5 6 7 8 9 10 11 12 12 11 11 12 11 11 10 9 9 8 8 8 8 7 7
1 1 3 4 5 7 5 4 3 3 4 6 9 8 3 9 11 10 10 9 5 4 3 4 5 6 7 8 9 9 10 11 12 13 14 13 12 13 13 12 12 11 11 11 10 9 9 8 8
5 3 4 5 6 6 6 6 6 5 8 10 11 10 13 11 13 14 14 13 10 8 7 6 6 6 6 8 10 12 12 12 12 13 14 14 13 13 14 14 13 13 12 13 13 12 11 10 9
6 4 3 6 7 7 6 6 8 9 12 14 16 16 16 15 14 14 14 14 13 13 13 11 11 10 10 10 9 11 13 14 14 14 14 14 13 13 14 15 15 14 14 13 14 13 13 12 11
7 7 4 6 7 8 9 9 12 13 12 14 15 16 16 15 14 15 16 16 17 17 18 16 16 15 14 13 13 13 13 14 15 16 16 16 15 14 15 16 16 15 15 15 16 15 15 14 14
10 8 7 8 8 9 10 11 14 13 13 19 11 8 9 12 13 14 16 16 15 16 17 17 16 16 16 17 17 16 16 16 17 17 18 18 18 16 17 18 18 18 18 18 18 18 18 17 16
10 6 6 6 8 10 12 13 15 13 15 15 11 8 9 11 13 15 16 17 17 16 15 15 16 18 18 17 17 18 19 19 19 20 21 21 21 20 20 20 21 21 21 21 21 21 22 21 20
11 10 11 12 12 14 14 13 16 5 8 10 14 15 16 18 20 19 20 21 21 22 22 22 22 20 20 19 18 18 19 20 21 22 23 24 24 24 22 23 24 24 24 24 25 25 25 24 23
16 16 15 13 11 14 16 11 7 9 10 11 13 16 20 22 24 25 24 24 23 22 22 20 19 19 21 23 23 21 22 22 23 23 25 26 27 26 27 26 27 27 27 27 28 27 28 28 27
15 15 15 17 12 8 6 10 8 13 14 16 19 23 23 22 20 19 19 19 19 18 18 18 18 18 17 17 20 21 23 23 25 27 28 28 29 28 28 29 29 30 30 30 31 31 30 30 30
19 19 15 6 7 9 11 14 10 16 17 22 25 26 24 18 15 14 14 11 9 11 13 14 16 18 18 17 18 21 23 25 27 29 30 31 30 29 28 26 30 31 32 32 33 33 33 34 34
16 14 16 13 13 13 13 16 13 17 23 26 27 22 18 16 14 15 14 14 14 16 16 14 12 12 14 15 16 18 20 22 24 26 27 28 30 29 25 27 26 28 31 33 32 33 37 37 38
15 14 14 18 18 17 18 22 20 24 28 26 18 16 19 20 19 19 16 14 13 12 9 8 7 7 7 8 10 12 14 17 19 20 21 23 26 29 30 30 31 32 31 34 34 35 30 34 42
16 20 22 22 21 24 25 26 21 24 22 16 18 20 21 21 22 20 13 11 10 9 5 6 8 8 8 8 8 9 9 11 14 16 18 19 19 21 25 30 33 35 36 36 36 37 39 43 47
22 24 27 25 23 25 23 26 21 17 17 19 21 21 26 23 17 12 11 10 10 8 7 7 8 9 10 10 9 9 10 13 15 15 14 15 17 19 19 20 23 26 29 31 33 34 38 41 44
27 28 28 25 22 23 24 25 17 19 20 17 18 25 22 16 14 13 11 11 9 9 9 10 11 10 11 13 13 14 14 15 16 17 18 19 18 17 19 21 22 21 22 23 26 29 33 35 35
29 27 22 20 18 9 7 6 11 16 19 23 24 24 17 15 14 14 13 12 10 10 11 13 13 12 13 15 15 14 15 13 14 17 19 22 26 26 25 24 23 23 23 23 23 23 26 28 29
24 22 18 15 14 17 17 13 13 17 21 23 25 20 17 16 16 14 13 13 12 12 13 13 13 13 11 13 15 15 18 17 18 21 24 25 28 30 33 35 35 31 29 29 29 30 30 31 31
19 14 11 10 12 6 22 21 6 13 11 19 21 19 20 17 17 15 17 16 15 15 15 15 15 13 14 15 17 18 19 22 24 28 32 34 35 36 38 39 40 39 38 36 35 35 36 35 36
22 15 3 2 2 6 6 12 25 12 12 16 19 18 19 19 17 17 18 17 18 17 17 18 19 22 24 26 28 31 33 36 39 40 38 36 35 37 38 39 41 43 45 46 45 46 48 47 46
25 22 8 7 4 4 5 10 7 12 17 18 19 20 21 19 18 18 16 16 17 18 19 20 24 28 31 34 37 40 43 45 47 48 47 45 42 38 34 34 38 41 42 42 43 44 48 50 49
20 28 25 12 10 4 10 16 19 16 16 22 26 26 21 19 18 17 16 17 17 20 22 26 29 31 35 39 43 47 49 49 49 49 46 45 44 39 37 36 35 38 41 43 43 44 45 44 45
25 18 11 12 1 5 6 12 17 9 13 23 28 25 23 22 19 17 16 19 21 24 26 29 33 37 41 45 47 47 46 44 44 44 44 43 43 40 39 39 37 37 39 42 45 46 47 48 49
27 27 18 15 13 5 2 7 7 8 10 14 20 23 22 21 19 19 20 23 24 28 34 38 42 41 40 41 41 41 41 42 41 41 41 38 36 35 37 38 39 41 42 43 45 47 50 51 52
27 31 33 25 10 13 7 26 20 26 17 15 18 21 21 22 23 22 23 27 33 37 38 37 39 40 39 38 37 37 36 34 34 33 32 32 33 37 40 41 42 43 44 45 46 48 49 52 54